Location: Newark
(13.8625°N, 100.5144°E)
Time: 18:37:11
(UTC+00:00)

LightSail 2 - Pass Details

Date: 15 May 2021
Orbit: 685 x 700 km, 24.0° (Epoch: 11 June)

Event Time Altitude Azimuth Distance (km) Brightness Sun altitude
Rises 12:00:07 0° 208° (SSW) 3,051 8.5 -6.0°
Reaches altitude 10° 12:03:56 10° 179° (S) 2,138 7.4 -6.8°
Maximum altitude 12:06:06 13° 153° (SSE) 1,960 7.0 -7.3°
Drops below altitude 10° 12:08:18 10° 127° (SE) 2,142 7.0 -7.8°
Enters shadow 12:08:44 - 123° (ESE) 2,218 7.0 -7.9°
